�������r�C�����j�^�v���󋵏��
Date,Time,5�C6���@���p�r�C��,����,����(m/s)
2024/05/21,00:00,3.5,�k�k��,1.2
2024/05/21,00:10,3.7,�k�k��,0.8
2024/05/21,00:20,3.7,�k��,2.2
2024/05/21,00:30,3.5,�k�k��,3.9
2024/05/21,00:40,3.7,�k��,4.1
2024/05/21,00:50,3.5,�k�k��,3.8
2024/05/21,01:00,3.6,�k�k��,3.5
2024/05/21,01:10,3.5,�k�k��,2.9
2024/05/21,01:20,3.4,�k,2.0
2024/05/21,01:30,3.4,�k,2.0
2024/05/21,01:40,3.7,�k�k��,1.5
2024/05/21,01:50,3.5,�k��,1.2
2024/05/21,02:00,3.8,�k��,3.2
2024/05/21,02:10,3.5,���k��,1.7
2024/05/21,02:20,3.8,���k��,1.7
2024/05/21,02:30,3.6,��,1.9
2024/05/21,02:40,3.7,��쐼,0.8
2024/05/21,02:50,3.6,�쐼,0.8
2024/05/21,03:00,3.8,��,3.4
2024/05/21,03:10,3.6,���k��,5.8
2024/05/21,03:20,3.4,���k��,3.9
2024/05/21,03:30,3.6,���k��,3.6
2024/05/21,03:40,3.6,���k��,2.0
2024/05/21,03:50,3.6,���쐼,2.0
2024/05/21,04:00,3.6,��,2.0
2024/05/21,04:10,3.5,���k��,4.5
2024/05/21,04:20,3.5,�k��,4.7
2024/05/21,04:30,3.5,���k��,5.4
2024/05/21,04:40,3.6,��,2.6
2024/05/21,04:50,3.6,�쐼,2.9
2024/05/21,05:00,3.6,�쐼,1.2
2024/05/21,05:10,3.7,�쐼,1.5
2024/05/21,05:20,3.4,-,CALM
2024/05/21,05:30,3.6,��,0.6
2024/05/21,05:40,3.7,�k��,1.2
2024/05/21,05:50,3.5,��,1.4
2024/05/21,06:00,3.5,���k��,2.0
2024/05/21,06:10,3.7,���k��,2.6
2024/05/21,06:20,3.7,���k��,0.8
2024/05/21,06:30,3.5,�k��,0.6
2024/05/21,06:40,3.6,�k��,0.9
2024/05/21,06:50,3.6,-,CALM
2024/05/21,07:00,3.6,��,2.6
2024/05/21,07:10,3.7,���k��,6.2
2024/05/21,07:20,3.7,���k��,6.7
2024/05/21,07:30,3.7,���k��,5.5
2024/05/21,07:40,3.6,���k��,8.0
2024/05/21,07:50,3.8,��,8.5
2024/05/21,08:00,3.5,���k��,8.6
2024/05/21,08:10,3.7,��,9.2
2024/05/21,08:20,3.6,��,8.6
2024/05/21,08:30,3.6,���k��,9.7
2024/05/21,08:40,3.7,��,8.1
2024/05/21,08:50,3.6,���k��,11.6
2024/05/21,09:00,3.5,���k��,9.0
2024/05/21,09:10,3.5,���k��,9.7
2024/05/21,09:20,3.7,���k��,7.0
2024/05/21,09:30,3.6,���k��,7.6
2024/05/21,09:40,3.6,��,4.3
2024/05/21,09:50,3.7,���k��,5.4
2024/05/21,10:00,3.6,��,5.2
2024/05/21,10:10,3.5,�쐼,0.9
2024/05/21,10:20,3.7,���쐼,3.1
2024/05/21,10:30,3.7,���k��,2.3
2024/05/21,10:40,3.6,���k��,3.7
2024/05/21,10:50,3.8,�k�k��,4.5
2024/05/21,11:00,3.6,�k��,4.3
2024/05/21,11:10,3.6,�k��,5.5
2024/05/21,11:20,3.7,�k��,4.9
2024/05/21,11:30,3.7,���k��,6.4
2024/05/21,11:40,3.6,�k��,10.3
2024/05/21,11:50,3.7,�k��,9.5
2024/05/21,12:00,3.5,���k��,9.3
2024/05/21,12:10,3.7,���k��,9.5
2024/05/21,12:20,3.5,��,7.3
2024/05/21,12:30,3.7,���k��,6.9
2024/05/21,12:40,3.5,��,6.7
2024/05/21,12:50,3.7,���k��,9.6
2024/05/21,13:00,3.7,���k��,9.3
2024/05/21,13:10,3.6,���k��,7.5
2024/05/21,13:20,3.6,���k��,8.7
2024/05/21,13:30,3.6,���k��,5.9
2024/05/21,13:40,3.5,���k��,10.0
2024/05/21,13:50,3.7,���k��,8.1
2024/05/21,14:00,3.8,���k��,12.4
2024/05/21,14:10,3.6,���k��,7.3
2024/05/21,14:20,3.7,���k��,11.1
2024/05/21,14:30,3.6,���k��,8.9
2024/05/21,14:40,3.6,���k��,11.3
2024/05/21,14:50,3.6,���k��,9.2
2024/05/21,15:00,3.5,���k��,8.1
2024/05/21,15:10,3.5,�k��,6.4
2024/05/21,15:20,3.7,���k��,6.5
2024/05/21,15:30,3.7,�k��,8.8
2024/05/21,15:40,3.4,�k��,6.6
2024/05/21,15:50,3.6,�k��,6.7
2024/05/21,16:00,3.5,�k��,7.5
2024/05/21,16:10,3.6,�k��,9.5
2024/05/21,16:20,3.8,�k�k��,8.8
2024/05/21,16:30,3.5,�k��,10.7
2024/05/21,16:40,3.5,�k��,8.9
2024/05/21,16:50,3.5,�k��,8.5
2024/05/21,17:00,3.6,�k��,8.6
2024/05/21,17:10,3.6,�k��,9.8
2024/05/21,17:20,3.5,�k��,7.7
2024/05/21,17:30,3.7,�k��,8.4
2024/05/21,17:40,3.7,�k�k��,10.0
2024/05/21,17:50,3.5,�k�k��,8.6
2024/05/21,18:00,3.7,�k��,8.9
2024/05/21,18:10,3.9,�k��,9.0
2024/05/21,18:20,3.7,�k�k��,10.2
2024/05/21,18:30,3.8,�k��,9.4
2024/05/21,18:40,3.5,�k��,9.4
2024/05/21,18:50,3.7,�k��,8.8
2024/05/21,19:00,3.6,�k��,7.4
2024/05/21,19:10,3.5,�k��,8.3
2024/05/21,19:20,3.7,�k��,8.0
2024/05/21,19:30,3.6,�k��,9.6
2024/05/21,19:40,3.6,�k��,8.2
2024/05/21,19:50,3.6,�k��,7.0
2024/05/21,20:00,3.8,�k��,5.9
2024/05/21,20:10,3.5,�k��,6.1
2024/05/21,20:20,3.9,�k��,6.8
2024/05/21,20:30,3.7,�k��,5.1
2024/05/21,20:40,3.6,�k��,4.6
2024/05/21,20:50,3.6,���k��,3.4
2024/05/21,21:00,3.5,�k��,4.9
2024/05/21,21:10,3.6,�k��,5.7
2024/05/21,21:20,3.5,�k��,5.8
2024/05/21,21:30,3.7,�k��,5.8
2024/05/21,21:40,3.5,�k��,7.0
2024/05/21,21:50,3.7,�k��,6.7
2024/05/21,22:00,3.7,�k��,7.4
2024/05/21,22:10,3.5,�k��,7.6
2024/05/21,22:20,3.6,�k��,8.1
2024/05/21,22:30,3.5,�k��,8.4
2024/05/21,22:40,3.7,�k��,8.2
2024/05/21,22:50,3.8,�k��,7.4
2024/05/21,23:00,3.7,�k��,6.5
2024/05/21,23:10,3.5,�k��,6.3
2024/05/21,23:20,3.7,�k��,5.5
2024/05/21,23:30,3.6,�k��,4.8
2024/05/21,23:40,3.7,�k��,4.7
2024/05/21,23:50,3.7,�k��,4.2
